| time (UTC) | temp F | wind direction | speed MPH | gust MPH | rain 1hr in | rain 24hr in | rain mn in | humidity % | barometer mb |
| 20260901101309 | 69 | 192 | 0.0 | 0.0 | 0.00 | 0.81 | 0.81 | 97 | 1020.5 |
| 20260901100809 | 69 | 191 | 0.0 | 0.0 | 0.00 | 0.81 | 0.81 | 97 | 1020.5 |
| 20260901100304 | 69 | 191 | 0.0 | 0.0 | 0.00 | 0.81 | 0.81 | 97 | 1020.4 |
| 20260901095803 | 69 | 190 | 0.0 | 0.0 | 0.00 | 0.81 | 0.81 | 97 | 1020.6 |
| 20260901095300 | 69 | 187 | 0.0 | 0.0 | 0.00 | 0.81 | 0.81 | 97 | 1020.7 |
| 20260901094754 | 69 | 227 | 0.0 | 0.0 | 0.00 | 0.81 | 0.81 | 97 | 1020.5 |
| 20260901094250 | 69 | 205 | 0.0 | 0.0 | 0.00 | 0.81 | 0.81 | 97 | 1020.4 |
| 20260901093745 | 69 | 205 | 0.0 | 0.0 | 0.00 | 0.81 | 0.81 | 97 | 1020.4 |
| 20260901093244 | 69 | 205 | 0.0 | 0.0 | 0.00 | 0.81 | 0.81 | 97 | 1020.4 |
| 20260901092740 | 69 | 204 | 0.0 | 0.0 | 0.00 | 0.81 | 0.81 | 97 | 1020.5 |
| 20260901092235 | 69 | 204 | 0.0 | 0.0 | 0.00 | 0.81 | 0.81 | 97 | 1020.7 |
| 20260901091730 | 69 | 209 | 0.0 | 0.0 | 0.00 | 0.81 | 0.81 | 97 | 1020.6 |
| 20260901091226 | 69 | 210 | 0.0 | 0.0 | 0.00 | 0.81 | 0.81 | 97 | 1020.5 |
| 20260901090720 | 69 | 207 | 0.0 | 0.0 | 0.00 | 0.81 | 0.81 | 97 | 1020.6 |
| 20260901090215 | 69 | 211 | 0.0 | 0.0 | 0.00 | 0.81 | 0.81 | 96 | 1020.8 |
| 20260901085712 | 69 | 211 | 0.0 | 0.0 | 0.00 | 0.81 | 0.81 | 96 | 1020.8 |
| 20260901085207 | 69 | 212 | 0.0 | 0.0 | 0.00 | 0.81 | 0.81 | 96 | 1020.9 |
| 20260901084703 | 69 | 207 | 0.0 | 0.0 | 0.00 | 0.81 | 0.81 | 96 | 1020.7 |
| 20260901084159 | 69 | 201 | 0.0 | 0.0 | 0.00 | 0.81 | 0.81 | 96 | 1020.8 |
| 20260901083659 | 69 | 200 | 0.0 | 0.0 | 0.00 | 0.81 | 0.81 | 96 | 1020.7 |
| 20260901083158 | 69 | 206 | 0.0 | 0.0 | 0.00 | 0.81 | 0.81 | 96 | 1020.8 |
| 20260901082652 | 69 | 185 | 0.0 | 0.0 | 0.00 | 0.81 | 0.81 | 96 | 1020.6 |
| 20260901082148 | 69 | 180 | 0.0 | 0.0 | 0.00 | 0.81 | 0.81 | 96 | 1021.0 |
| 20260901081643 | 69 | 198 | 0.0 | 0.0 | 0.00 | 0.81 | 0.81 | 96 | 1021.0 |
| 20260901081142 | 69 | 195 | 0.0 | 0.0 | 0.00 | 0.81 | 0.81 | 96 | 1021.2 |
| 20260901080638 | 69 | 188 | 0.0 | 0.0 | 0.00 | 0.81 | 0.81 | 96 | 1021.1 |
| 20260901080136 | 69 | 200 | 0.0 | 0.0 | 0.00 | 0.81 | 0.81 | 96 | 1020.9 |
| 20260901075632 | 69 | 177 | 1.0 | 1.0 | 0.00 | 0.81 | 0.81 | 96 | 1021.0 |
| 20260901075131 | 69 | 194 | 0.0 | 1.0 | 0.00 | 0.81 | 0.81 | 96 | 1020.9 |
| 20260901074631 | 69 | 177 | 1.0 | 1.0 | 0.00 | 0.81 | 0.81 | 96 | 1021.0 |
| 20260901074126 | 69 | 187 | 0.0 | 0.0 | 0.00 | 0.81 | 0.81 | 96 | 1021.2 |
| 20260901073622 | 69 | 192 | 0.0 | 0.0 | 0.00 | 0.81 | 0.81 | 96 | 1021.2 |
| 20260901073117 | 69 | 188 | 0.0 | 0.0 | 0.00 | 0.81 | 0.81 | 96 | 1021.1 |
| 20260901072613 | 69 | 197 | 0.0 | 0.0 | 0.00 | 0.81 | 0.81 | 96 | 1021.3 |
| 20260901072108 | 69 | 198 | 0.0 | 0.0 | 0.00 | 0.81 | 0.81 | 96 | 1021.4 |
| 20260901071607 | 69 | 204 | 0.0 | 0.0 | 0.00 | 0.81 | 0.81 | 96 | 1021.3 |
| 20260901071106 | 69 | 204 | 0.0 | 0.0 | 0.00 | 0.81 | 0.81 | 95 | 1021.4 |
| 20260901070555 | 69 | 184 | 1.0 | 1.0 | 0.00 | 0.81 | 0.81 | 95 | 1021.2 |
| 20260901070050 | 69 | 192 | 1.0 | 1.0 | 0.00 | 0.81 | 0.81 | 95 | 1021.3 |
| 20260901065545 | 69 | 194 | 0.0 | 0.0 | 0.05 | 0.81 | 0.81 | 95 | 1021.1 |
| 20260901065039 | 69 | 198 | 0.0 | 0.0 | 0.05 | 0.81 | 0.81 | 95 | 1021.3 |
| 20260901064537 | 69 | 187 | 2.0 | 2.0 | 0.00 | 0.80 | 0.80 | 95 | 1021.4 |
| 20260901064033 | 69 | 184 | 0.0 | 0.0 | 0.07 | 0.80 | 0.80 | 95 | 1021.5 |
| 20260901063529 | 69 | 156 | 1.0 | 1.0 | 0.19 | 0.80 | 0.80 | 95 | 1021.6 |
| 20260901063025 | 69 | 200 | 0.0 | 0.0 | 0.47 | 0.79 | 0.79 | 95 | 1021.5 |
| 20260901062520 | 69 | 207 | 0.0 | 0.0 | 0.54 | 0.78 | 0.78 | 94 | 1021.8 |
| 20260901062016 | 69 | 199 | 0.0 | 0.0 | 0.35 | 0.72 | 0.72 | 94 | 1021.8 |
| 20260901061513 | 69 | 186 | 1.0 | 1.0 | 0.24 | 0.69 | 0.69 | 94 | 1021.7 |
| 20260901061007 | 69 | 204 | 0.0 | 0.0 | 0.12 | 0.66 | 0.66 | 94 | 1021.6 |
| 20260901060502 | 69 | 169 | 1.0 | 2.0 | 0.07 | 0.65 | 0.65 | 94 | 1021.6 |
| 20260901060001 | 69 | 144 | 2.0 | 2.0 | 0.00 | 0.64 | 0.64 | 94 | 1021.8 |
| 20260901055457 | 69 | 196 | 1.0 | 2.0 | 0.19 | 0.64 | 0.64 | 94 | 1021.7 |
| 20260901054949 | 69 | 203 | 0.0 | 0.0 | 0.24 | 0.64 | 0.64 | 94 | 1021.7 |
| 20260901054446 | 69 | 184 | 0.0 | 0.0 | 0.05 | 0.61 | 0.61 | 94 | 1022.0 |
| 20260901053941 | 69 | 202 | 0.0 | 1.0 | 0.24 | 0.60 | 0.60 | 94 | 1021.9 |
| 20260901053436 | 69 | 154 | 1.0 | 2.0 | 0.78 | 0.60 | 0.60 | 94 | 1021.8 |
| 20260901052931 | 69 | 199 | 0.0 | 0.0 | 0.78 | 0.58 | 0.58 | 93 | 1022.0 |
| 20260901052426 | 69 | 226 | 0.0 | 1.0 | 0.28 | 0.48 | 0.48 | 93 | 1022.0 |
| 20260901051925 | 69 | 216 | 1.0 | 2.0 | 0.47 | 0.45 | 0.45 | 93 | 1022.1 |
| 20260901051421 | 69 | 203 | 0.0 | 0.0 | 0.61 | 0.43 | 0.43 | 93 | 1022.0 |
| 20260901050915 | 69 | 214 | 0.0 | 0.0 | 0.71 | 0.38 | 0.38 | 93 | 1022.3 |
| 20260901050411 | 69 | 216 | 0.0 | 0.0 | 0.73 | 0.32 | 0.32 | 92 | 1022.4 |
| 20260901045906 | 70 | 211 | 0.0 | 0.0 | 0.35 | 0.25 | 0.25 | 92 | 1022.4 |
| 20260901045405 | 70 | 210 | 0.0 | 0.0 | 0.28 | 0.20 | 0.20 | 92 | 1022.2 |
| 20260901044900 | 70 | 208 | 0.0 | 0.0 | 0.35 | 0.19 | 0.19 | 91 | 1022.3 |
| 20260901044357 | 70 | 210 | 0.0 | 0.0 | 0.47 | 0.16 | 0.16 | 91 | 1022.3 |
| 20260901043852 | 70 | 214 | 0.0 | 0.0 | 0.42 | 0.12 | 0.12 | 90 | 1022.3 |
| 20260901043348 | 70 | 216 | 0.0 | 0.0 | 0.42 | 0.08 | 0.08 | 89 | 1022.4 |
| 20260901042843 | 71 | 224 | 0.0 | 0.0 | 0.24 | 0.04 | 0.04 | 88 | 1022.4 |
| 20260901042342 | 71 | 214 | 0.0 | 0.0 | 0.05 | 0.01 | 0.01 | 86 | 1022.2 |
| 20260901041838 | 71 | 213 | 0.0 | 0.0 | 0.00 | 0.00 | 0.00 | 85 | 1022.4 |
| 20260901041333 | 71 | 221 | 0.0 | 0.0 | 0.00 | 0.00 | 0.00 | 84 | 1022.2 |
| 20260901040828 | 71 | 208 | 0.0 | 0.0 | 0.00 | 0.00 | 0.00 | 84 | 1022.2 |
| 20260901040327 | 71 | 219 | 0.0 | 0.0 | 0.00 | 0.00 | 0.00 | 84 | 1022.2 |
| 20260901035826 | 71 | 214 | 0.0 | 0.0 | 0.00 | 0.00 | 0.00 | 84 | 1022.1 |
| 20260901035325 | 71 | 214 | 0.0 | 0.0 | 0.00 | 0.00 | 0.00 | 84 | 1022.3 |
| 20260901034824 | 71 | 217 | 0.0 | 1.0 | 0.00 | 0.00 | 0.00 | 84 | 1022.2 |
| 20260901034319 | 71 | 210 | 0.0 | 0.0 | 0.00 | 0.00 | 0.00 | 84 | 1022.3 |
| 20260901033813 | 71 | 220 | 0.0 | 1.0 | 0.00 | 0.00 | 0.00 | 85 | 1022.2 |
| 20260901033313 | 71 | 214 | 0.0 | 0.0 | 0.00 | 0.00 | 0.00 | 85 | 1022.3 |
| 20260901032811 | 71 | 221 | 0.0 | 0.0 | 0.00 | 0.00 | 0.00 | 85 | 1022.4 |
| 20260901032306 | 71 | 219 | 0.0 | 0.0 | 0.00 | 0.00 | 0.00 | 85 | 1022.6 |
| 20260901031801 | 72 | 208 | 0.0 | 0.0 | 0.00 | 0.00 | 0.00 | 85 | 1022.7 |
| 20260901031257 | 72 | 208 | 0.0 | 0.0 | 0.00 | 0.00 | 0.00 | 85 | 1022.6 |
| 20260901030756 | 72 | 213 | 0.0 | 0.0 | 0.00 | 0.00 | 0.00 | 85 | 1022.4 |
| 20260901030256 | 72 | 175 | 0.0 | 0.0 | 0.00 | 0.00 | 0.00 | 85 | 1022.7 |
| 20260901025751 | 72 | 202 | 0.0 | 0.0 | 0.00 | 0.00 | 0.00 | 84 | 1022.8 |
| 20260901025246 | 72 | 211 | 0.0 | 0.0 | 0.00 | 0.00 | 0.00 | 84 | 1022.7 |
| 20260901024741 | 72 | 204 | 0.0 | 0.0 | 0.00 | 0.00 | 0.00 | 84 | 1022.8 |
| 20260901024240 | 72 | 217 | 0.0 | 0.0 | 0.00 | 0.00 | 0.00 | 84 | 1022.7 |
| 20260901023738 | 72 | 209 | 0.0 | 0.0 | 0.00 | 0.00 | 0.00 | 84 | 1022.7 |
| 20260901023233 | 72 | 202 | 1.0 | 2.0 | 0.00 | 0.00 | 0.00 | 84 | 1022.8 |
| 20260901022729 | 72 | 206 | 0.0 | 0.0 | 0.00 | 0.00 | 0.00 | 84 | 1022.9 |
| 20260901022224 | 72 | 203 | 0.0 | 0.0 | 0.00 | 0.00 | 0.00 | 83 | 1023.1 |
| 20260901021719 | 72 | 197 | 0.0 | 0.0 | 0.00 | 0.00 | 0.00 | 83 | 1023.0 |
| 20260901021214 | 72 | 200 | 1.0 | 1.0 | 0.00 | 0.00 | 0.00 | 83 | 1023.0 |
| 20260901020704 | 72 | 210 | 0.0 | 0.0 | 0.00 | 0.00 | 0.00 | 83 | 1023.0 |
| 20260901020159 | 72 | 214 | 0.0 | 1.0 | 0.00 | 0.00 | 0.00 | 83 | 1023.0 |
| 20260901015654 | 72 | 203 | 0.0 | 0.0 | 0.00 | 0.00 | 0.00 | 83 | 1023.0 |
| 20260901015154 | 72 | 197 | 0.0 | 0.0 | 0.00 | 0.00 | 0.00 | 82 | 1023.0 |
| 20260901014649 | 72 | 197 | 1.0 | 1.0 | 0.00 | 0.00 | 0.00 | 82 | 1023.1 |
| 20260901014145 | 72 | 222 | 0.0 | 0.0 | 0.00 | 0.00 | 0.00 | 82 | 1023.0 |
| 20260901013641 | 72 | 208 | 0.0 | 0.0 | 0.00 | 0.00 | 0.00 | 82 | 1023.3 |
| 20260901013137 | 72 | 213 | 0.0 | 0.0 | 0.00 | 0.00 | 0.00 | 81 | 1023.3 |
| 20260901012636 | 72 | 211 | 0.0 | 0.0 | 0.00 | 0.00 | 0.00 | 81 | 1023.1 |
| 20260901012131 | 72 | 190 | 0.0 | 1.0 | 0.00 | 0.00 | 0.00 | 81 | 1023.3 |
| 20260901011628 | 72 | 187 | 0.0 | 0.0 | 0.00 | 0.00 | 0.00 | 81 | 1023.2 |
| 20260901011126 | 72 | 208 | 1.0 | 1.0 | 0.00 | 0.00 | 0.00 | 81 | 1023.1 |
| 20260901010621 | 73 | 220 | 2.0 | 2.0 | 0.00 | 0.00 | 0.00 | 80 | 1023.1 |
| 20260901010120 | 73 | 200 | 0.0 | 0.0 | 0.00 | 0.00 | 0.00 | 80 | 1023.0 |
| 20260901005615 | 73 | 181 | 0.0 | 1.0 | 0.00 | 0.00 | 0.00 | 80 | 1023.1 |
| 20260901005110 | 73 | 197 | 0.0 | 0.0 | 0.00 | 0.00 | 0.00 | 80 | 1023.0 |
| 20260901004609 | 73 | 203 | 0.0 | 1.0 | 0.00 | 0.00 | 0.00 | 80 | 1023.0 |
| 20260901004105 | 73 | 194 | 0.0 | 0.0 | 0.00 | 0.00 | 0.00 | 80 | 1023.0 |
| 20260901003559 | 73 | 130 | 3.0 | 4.0 | 0.00 | 0.00 | 0.00 | 80 | 1023.0 |
| 20260901003058 | 73 | 208 | 0.0 | 0.0 | 0.00 | 0.00 | 0.00 | 80 | 1023.0 |
| 20260901002557 | 73 | 177 | 1.0 | 2.0 | 0.00 | 0.00 | 0.00 | 80 | 1022.8 |
| 20260901002053 | 73 | 210 | 0.0 | 0.0 | 0.00 | 0.00 | 0.00 | 80 | 1022.9 |
| 20260901001548 | 73 | 151 | 2.0 | 3.0 | 0.00 | 0.00 | 0.00 | 80 | 1022.8 |
| 20260901001043 | 73 | 144 | 3.0 | 3.0 | 0.00 | 0.00 | 0.00 | 79 | 1022.7 |
| 20260901000538 | 73 | 201 | 0.0 | 0.0 | 0.00 | 0.00 | 0.00 | 78 | 1022.8 |
| 20260901000034 | 73 | 201 | 0.0 | 0.0 | 0.00 | 0.00 | 0.00 | 78 | 1022.8 |
| 20260831235527 | 73 | 157 | 2.0 | 2.0 | 0.00 | 0.00 | 0.00 | 77 | 1022.7 |
| 20260831235023 | 73 | 175 | 1.0 | 1.0 | 0.00 | 0.00 | 0.00 | 77 | 1022.9 |
| 20260831234517 | 73 | 198 | 1.0 | 1.0 | 0.00 | 0.00 | 0.00 | 77 | 1022.9 |
| 20260831234013 | 73 | 209 | 0.0 | 0.0 | 0.00 | 0.00 | 0.00 | 77 | 1022.9 |
| 20260831233507 | 73 | 213 | 0.0 | 0.0 | 0.00 | 0.00 | 0.00 | 77 | 1023.0 |
| 20260831233003 | 73 | 178 | 1.0 | 1.0 | 0.00 | 0.00 | 0.00 | 77 | 1022.8 |
| 20260831232459 | 73 | 147 | 3.0 | 3.0 | 0.00 | 0.00 | 0.00 | 77 | 1022.8 |
| 20260831231954 | 73 | 209 | 0.0 | 0.0 | 0.00 | 0.00 | 0.00 | 77 | 1022.9 |
| 20260831231450 | 73 | 201 | 0.0 | 0.0 | 0.00 | 0.00 | 0.00 | 77 | 1023.0 |
| 20260831230946 | 73 | 209 | 0.0 | 0.0 | 0.00 | 0.00 | 0.00 | 77 | 1023.0 |
| 20260831230441 | 74 | 197 | 0.0 | 0.0 | 0.00 | 0.00 | 0.00 | 77 | 1023.1 |
| 20260831225935 | 74 | 202 | 0.0 | 0.0 | 0.00 | 0.00 | 0.00 | 77 | 1023.2 |
| 20260831225431 | 74 | 213 | 0.0 | 0.0 | 0.00 | 0.00 | 0.00 | 76 | 1023.2 |
| 20260831224925 | 74 | 216 | 0.0 | 0.0 | 0.00 | 0.00 | 0.00 | 76 | 1023.1 |
| 20260831224420 | 74 | 230 | 1.0 | 1.0 | 0.00 | 0.00 | 0.00 | 76 | 1023.0 |
| 20260831223920 | 74 | 219 | 1.0 | 1.0 | 0.00 | 0.00 | 0.00 | 76 | 1022.9 |
| 20260831223415 | 74 | 209 | 0.0 | 1.0 | 0.00 | 0.00 | 0.00 | 76 | 1023.0 |
| 20260831222912 | 74 | 205 | 1.0 | 1.0 | 0.00 | 0.00 | 0.00 | 76 | 1023.0 |
| 20260831222407 | 74 | 245 | 1.0 | 2.0 | 0.00 | 0.00 | 0.00 | 75 | 1023.0 |
| 20260831221902 | 74 | 227 | 0.0 | 0.0 | 0.00 | 0.00 | 0.00 | 76 | 1022.9 |
| 20260831221358 | 74 | 196 | 1.0 | 1.0 | 0.00 | 0.00 | 0.00 | 76 | 1023.2 |
| 20260831220853 | 74 | 210 | 0.0 | 0.0 | 0.00 | 0.00 | 0.00 | 75 | 1023.2 |
| 20260831220349 | 74 | 241 | 3.0 | 3.0 | 0.00 | 0.00 | 0.00 | 76 | 1023.1 |
| 20260831215843 | 74 | 220 | 0.0 | 0.0 | 0.00 | 0.00 | 0.00 | 76 | 1023.3 |
| 20260831215339 | 74 | 218 | 1.0 | 1.0 | 0.00 | 0.00 | 0.00 | 78 | 1023.1 |
| 20260831214836 | 74 | 212 | 0.0 | 0.0 | 0.00 | 0.00 | 0.00 | 77 | 1023.2 |
| 20260831214333 | 74 | 234 | 1.0 | 2.0 | 0.00 | 0.00 | 0.00 | 78 | 1023.3 |
| 20260831213827 | 73 | 167 | 0.0 | 0.0 | 0.00 | 0.00 | 0.00 | 79 | 1023.0 |
| 20260831213324 | 73 | 160 | 2.0 | 2.0 | 0.00 | 0.00 | 0.00 | 79 | 1023.1 |
| 20260831212819 | 73 | 183 | 1.0 | 1.0 | 0.00 | 0.00 | 0.00 | 79 | 1023.3 |
| 20260831212316 | 73 | 165 | 1.0 | 2.0 | 0.00 | 0.00 | 0.00 | 78 | 1023.3 |
| 20260831211809 | 74 | 183 | 2.0 | 2.0 | 0.00 | 0.00 | 0.00 | 78 | 1023.4 |
| 20260831211304 | 74 | 204 | 1.0 | 1.0 | 0.00 | 0.00 | 0.00 | 78 | 1023.3 |
| 20260831210758 | 73 | 201 | 0.0 | 0.0 | 0.00 | 0.00 | 0.00 | 78 | 1023.3 |
| 20260831210255 | 73 | 206 | 0.0 | 0.0 | 0.00 | 0.00 | 0.00 | 78 | 1023.3 |
| 20260831205754 | 74 | 176 | 2.0 | 2.0 | 0.00 | 0.00 | 0.00 | 77 | 1023.6 |
| 20260831205250 | 74 | 163 | 2.0 | 3.0 | 0.00 | 0.00 | 0.00 | 77 | 1023.4 |
| 20260831204750 | 73 | 174 | 3.0 | 4.0 | 0.00 | 0.00 | 0.00 | 77 | 1023.2 |
| 20260831204249 | 73 | 136 | 2.0 | 3.0 | 0.00 | 0.00 | 0.00 | 77 | 1023.2 |
| 20260831203748 | 74 | 104 | 0.0 | 0.0 | 0.00 | 0.00 | 0.00 | 77 | 1023.0 |
| 20260831203243 | 74 | 167 | 2.0 | 3.0 | 0.00 | 0.00 | 0.00 | 76 | 1023.2 |
| 20260831202741 | 74 | 125 | 3.0 | 3.0 | 0.00 | 0.00 | 0.00 | 76 | 1023.2 |
| 20260831202236 | 74 | 96 | 2.0 | 2.0 | 0.00 | 0.00 | 0.00 | 76 | 1023.4 |
| 20260831201731 | 75 | 152 | 1.0 | 1.0 | 0.00 | 0.00 | 0.00 | 76 | 1023.2 |
| 20260831201230 | 75 | 183 | 1.0 | 2.0 | 0.00 | 0.00 | 0.00 | 75 | 1023.4 |
| 20260831200726 | 75 | 158 | 1.0 | 2.0 | 0.00 | 0.00 | 0.00 | 74 | 1023.6 |
| 20260831200226 | 75 | 185 | 1.0 | 1.0 | 0.00 | 0.00 | 0.00 | 74 | 1023.3 |
| 20260831195721 | 76 | 200 | 0.0 | 0.0 | 0.00 | 0.00 | 0.00 | 73 | 1023.6 |
| 20260831195217 | 76 | 192 | 0.0 | 0.0 | 0.00 | 0.00 | 0.00 | 72 | 1023.5 |
| 20260831194712 | 76 | 211 | 0.0 | 0.0 | 0.00 | 0.00 | 0.00 | 73 | 1023.6 |
| 20260831194208 | 75 | 161 | 1.0 | 1.0 | 0.00 | 0.00 | 0.00 | 72 | 1023.7 |
| 20260831193701 | 76 | 123 | 3.0 | 3.0 | 0.00 | 0.00 | 0.00 | 72 | 1023.7 |
| 20260831193156 | 76 | 165 | 3.0 | 4.0 | 0.00 | 0.00 | 0.00 | 72 | 1023.8 |
| 20260831192651 | 76 | 169 | 2.0 | 2.0 | 0.00 | 0.00 | 0.00 | 71 | 1023.8 |
| 20260831192147 | 76 | 161 | 2.0 | 3.0 | 0.00 | 0.00 | 0.00 | 71 | 1023.8 |
| 20260831191642 | 77 | 168 | 0.0 | 1.0 | 0.00 | 0.00 | 0.00 | 70 | 1024.1 |
| 20260831191138 | 76 | 219 | 0.0 | 0.0 | 0.00 | 0.00 | 0.00 | 72 | 1024.0 |
| 20260831190633 | 76 | 150 | 2.0 | 3.0 | 0.00 | 0.00 | 0.00 | 72 | 1023.9 |
| 20260831190133 | 76 | 182 | 1.0 | 2.0 | 0.00 | 0.00 | 0.00 | 70 | 1024.0 |
| 20260831185629 | 76 | 126 | 3.0 | 3.0 | 0.00 | 0.00 | 0.00 | 70 | 1024.3 |
| 20260831185124 | 77 | 143 | 3.0 | 3.0 | 0.00 | 0.00 | 0.00 | 70 | 1024.4 |
| 20260831184623 | 75 | 234 | 0.0 | 1.0 | 0.00 | 0.00 | 0.00 | 71 | 1024.5 |
| 20260831184119 | 76 | 138 | 0.0 | 1.0 | 0.00 | 0.00 | 0.00 | 71 | 1024.4 |
| 20260831183618 | 78 | 103 | 2.0 | 3.0 | 0.00 | 0.00 | 0.00 | 69 | 1024.4 |
| 20260831183118 | 77 | 224 | 2.0 | 2.0 | 0.00 | 0.00 | 0.00 | 70 | 1024.5 |
| 20260831182617 | 76 | 175 | 2.0 | 3.0 | 0.00 | 0.00 | 0.00 | 70 | 1024.1 |
| 20260831182113 | 77 | 154 | 4.0 | 4.0 | 0.00 | 0.00 | 0.00 | 69 | 1024.4 |
| 20260831181613 | 76 | 243 | 1.0 | 2.0 | 0.00 | 0.00 | 0.00 | 69 | 1024.4 |
| 20260831181108 | 78 | 175 | 4.0 | 6.0 | 0.00 | 0.00 | 0.00 | 69 | 1024.6 |
| 20260831180603 | 77 | 112 | 3.0 | 4.0 | 0.00 | 0.00 | 0.00 | 68 | 1024.7 |
| 20260831180058 | 76 | 203 | 3.0 | 4.0 | 0.00 | 0.00 | 0.00 | 70 | 1024.6 |
| 20260831175558 | 77 | 209 | 0.0 | 0.0 | 0.00 | 0.00 | 0.00 | 68 | 1024.7 |
| 20260831175055 | 79 | 199 | 2.0 | 2.0 | 0.00 | 0.00 | 0.00 | 66 | 1024.8 |
| 20260831174550 | 78 | 235 | 0.0 | 1.0 | 0.00 | 0.00 | 0.00 | 68 | 1024.7 |
| 20260831174050 | 77 | 195 | 1.0 | 1.0 | 0.00 | 0.00 | 0.00 | 69 | 1024.9 |
| 20260831173548 | 77 | 140 | 1.0 | 2.0 | 0.00 | 0.00 | 0.00 | 69 | 1024.8 |
| 20260831173045 | 76 | 132 | 4.0 | 6.0 | 0.00 | 0.00 | 0.00 | 69 | 1024.7 |
| 20260831172539 | 76 | 138 | 3.0 | 4.0 | 0.00 | 0.00 | 0.00 | 69 | 1024.8 |
| 20260831172034 | 76 | 157 | 3.0 | 4.0 | 0.00 | 0.00 | 0.00 | 67 | 1024.8 |
| 20260831171530 | 76 | 142 | 2.0 | 3.0 | 0.00 | 0.00 | 0.00 | 68 | 1024.9 |
| 20260831171027 | 75 | 184 | 1.0 | 2.0 | 0.00 | 0.00 | 0.00 | 68 | 1024.8 |
| 20260831170522 | 76 | 185 | 2.0 | 4.0 | 0.00 | 0.00 | 0.00 | 65 | 1024.5 |
| 20260831170020 | 76 | 99 | 2.0 | 3.0 | 0.00 | 0.00 | 0.00 | 66 | 1024.6 |
| 20260831165520 | 76 | 152 | 1.0 | 1.0 | 0.00 | 0.00 | 0.00 | 66 | 1024.8 |
| 20260831165017 | 76 | 68 | 6.0 | 8.0 | 0.00 | 0.00 | 0.00 | 65 | 1025.0 |
| 20260831164513 | 76 | 112 | 5.0 | 7.0 | 0.00 | 0.00 | 0.00 | 62 | 1025.1 |
| 20260831164008 | 75 | 135 | 3.0 | 6.0 | 0.00 | 0.00 | 0.00 | 65 | 1025.0 |
| 20260831163503 | 75 | 103 | 3.0 | 4.0 | 0.00 | 0.00 | 0.00 | 66 | 1025.1 |
| 20260831163002 | 75 | 122 | 6.0 | 9.0 | 0.00 | 0.00 | 0.00 | 66 | 1025.1 |
| 20260831162457 | 75 | 101 | 1.0 | 2.0 | 0.00 | 0.00 | 0.00 | 69 | 1025.0 |
| 20260831161955 | 75 | 104 | 2.0 | 4.0 | 0.00 | 0.00 | 0.00 | 67 | 1024.9 |
| 20260831161452 | 74 | 63 | 2.0 | 2.0 | 0.00 | 0.00 | 0.00 | 70 | 1025.2 |
| 20260831160948 | 74 | 147 | 4.0 | 8.0 | 0.00 | 0.00 | 0.00 | 72 | 1025.0 |
| 20260831160447 | 75 | 107 | 3.0 | 3.0 | 0.00 | 0.00 | 0.00 | 72 | 1024.9 |
| 20260831155942 | 74 | 131 | 2.0 | 3.0 | 0.00 | 0.00 | 0.00 | 72 | 1025.3 |
| 20260831155437 | 73 | 173 | 5.0 | 6.0 | 0.00 | 0.00 | 0.00 | 71 | 1025.0 |
| 20260831154932 | 74 | 145 | 6.0 | 9.0 | 0.00 | 0.00 | 0.00 | 71 | 1025.1 |
| 20260831154429 | 74 | 91 | 3.0 | 6.0 | 0.00 | 0.00 | 0.00 | 71 | 1025.0 |
| 20260831153927 | 74 | 173 | 2.0 | 2.0 | 0.00 | 0.00 | 0.00 | 70 | 1025.1 |
| 20260831153423 | 75 | 145 | 6.0 | 7.0 | 0.00 | 0.00 | 0.00 | 68 | 1024.9 |
| 20260831152920 | 76 | 109 | 3.0 | 4.0 | 0.00 | 0.00 | 0.00 | 69 | 1025.0 |
| 20260831152415 | 75 | 187 | 4.0 | 6.0 | 0.00 | 0.00 | 0.00 | 69 | 1025.1 |
| 20260831151909 | 74 | 161 | 3.0 | 3.0 | 0.00 | 0.00 | 0.00 | 70 | 1024.9 |
| 20260831151408 | 73 | 109 | 4.0 | 4.0 | 0.00 | 0.00 | 0.00 | 74 | 1025.3 |
| 20260831150903 | 74 | 139 | 3.0 | 4.0 | 0.00 | 0.00 | 0.00 | 72 | 1025.0 |
| 20260831150359 | 73 | 142 | 2.0 | 2.0 | 0.00 | 0.00 | 0.00 | 72 | 1025.3 |
| 20260831145858 | 73 | 150 | 1.0 | 1.0 | 0.00 | 0.00 | 0.00 | 73 | 1025.2 |
| 20260831145354 | 73 | 178 | 2.0 | 2.0 | 0.00 | 0.00 | 0.00 | 74 | 1025.3 |
| 20260831144850 | 73 | 165 | 2.0 | 2.0 | 0.00 | 0.00 | 0.00 | 74 | 1025.3 |
| 20260831144346 | 73 | 185 | 0.0 | 1.0 | 0.00 | 0.00 | 0.00 | 74 | 1025.0 |
| 20260831143846 | 74 | 121 | 6.0 | 8.0 | 0.00 | 0.00 | 0.00 | 74 | 1025.5 |
| 20260831143341 | 74 | 102 | 0.0 | 1.0 | 0.00 | 0.00 | 0.00 | 74 | 1025.3 |
| 20260831142837 | 73 | 171 | 1.0 | 1.0 | 0.00 | 0.00 | 0.00 | 74 | 1025.2 |
| 20260831142332 | 74 | 157 | 3.0 | 6.0 | 0.00 | 0.00 | 0.00 | 74 | 1025.2 |
| 20260831141826 | 74 | 145 | 3.0 | 4.0 | 0.00 | 0.00 | 0.00 | 75 | 1025.3 |
| 20260831141321 | 74 | 143 | 3.0 | 4.0 | 0.00 | 0.00 | 0.00 | 73 | 1025.3 |
| 20260831140816 | 76 | 135 | 4.0 | 4.0 | 0.00 | 0.00 | 0.00 | 72 | 1025.1 |
| 20260831140310 | 77 | 133 | 1.0 | 1.0 | 0.00 | 0.00 | 0.00 | 72 | 1025.1 |
| 20260831135808 | 75 | 198 | 0.0 | 0.0 | 0.00 | 0.00 | 0.00 | 73 | 1025.0 |
| 20260831135306 | 74 | 213 | 0.0 | 0.0 | 0.00 | 0.00 | 0.00 | 75 | 1024.9 |
| 20260831134759 | 75 | 145 | 2.0 | 2.0 | 0.00 | 0.00 | 0.00 | 73 | 1025.1 |
| 20260831134255 | 73 | 237 | 1.0 | 1.0 | 0.00 | 0.00 | 0.00 | 76 | 1024.8 |
| 20260831133754 | 72 | 224 | 2.0 | 3.0 | 0.00 | 0.00 | 0.00 | 75 | 1025.1 |
| 20260831133248 | 73 | 203 | 0.0 | 1.0 | 0.00 | 0.00 | 0.00 | 75 | 1025.1 |
| 20260831132744 | 73 | 168 | 1.0 | 1.0 | 0.00 | 0.00 | 0.00 | 76 | 1024.8 |
| 20260831132238 | 73 | 213 | 0.0 | 1.0 | 0.00 | 0.00 | 0.00 | 76 | 1024.8 |
| 20260831131733 | 72 | 100 | 4.0 | 6.0 | 0.00 | 0.00 | 0.00 | 76 | 1024.6 |
| 20260831131230 | 71 | 83 | 0.0 | 1.0 | 0.00 | 0.00 | 0.00 | 78 | 1024.9 |
| 20260831130724 | 73 | 97 | 4.0 | 4.0 | 0.00 | 0.00 | 0.00 | 76 | 1024.8 |
| 20260831130219 | 72 | 201 | 0.0 | 0.0 | 0.00 | 0.00 | 0.00 | 79 | 1024.6 |
| 20260831125718 | 70 | 79 | 1.0 | 2.0 | 0.00 | 0.00 | 0.00 | 80 | 1024.9 |
| 20260831125214 | 71 | 126 | 2.0 | 3.0 | 0.00 | 0.00 | 0.00 | 80 | 1024.9 |
| 20260831124708 | 71 | 197 | 0.0 | 0.0 | 0.00 | 0.00 | 0.00 | 82 | 1024.8 |
| 20260831124206 | 70 | 317 | 2.0 | 2.0 | 0.00 | 0.00 | 0.00 | 83 | 1025.1 |
| 20260831123705 | 69 | 314 | 0.0 | 1.0 | 0.00 | 0.00 | 0.00 | 83 | 1024.9 |
| 20260831123204 | 69 | 191 | 0.0 | 0.0 | 0.00 | 0.00 | 0.00 | 84 | 1024.9 |
| 20260831122703 | 69 | 182 | 0.0 | 0.0 | 0.00 | 0.00 | 0.00 | 84 | 1024.9 |
| 20260831122159 | 69 | 198 | 0.0 | 0.0 | 0.00 | 0.00 | 0.00 | 84 | 1024.9 |
| 20260831121658 | 69 | 193 | 0.0 | 0.0 | 0.00 | 0.00 | 0.00 | 85 | 1025.0 |
| 20260831121155 | 68 | 211 | 0.0 | 0.0 | 0.00 | 0.00 | 0.00 | 85 | 1024.8 |
| 20260831120650 | 68 | 170 | 0.0 | 0.0 | 0.00 | 0.00 | 0.00 | 85 | 1024.7 |
| 20260831120144 | 68 | 208 | 0.0 | 0.0 | 0.00 | 0.00 | 0.00 | 85 | 1025.0 |
| 20260831115641 | 68 | 167 | 0.0 | 0.0 | 0.00 | 0.00 | 0.00 | 85 | 1024.9 |
| 20260831115136 | 68 | 189 | 0.0 | 0.0 | 0.00 | 0.00 | 0.00 | 85 | 1024.8 |
| 20260831114635 | 68 | 232 | 0.0 | 1.0 | 0.00 | 0.00 | 0.00 | 85 | 1024.8 |
| 20260831114130 | 68 | 234 | 0.0 | 0.0 | 0.00 | 0.00 | 0.00 | 86 | 1024.7 |
| 20260831113630 | 68 | 181 | 1.0 | 1.0 | 0.00 | 0.00 | 0.00 | 85 | 1024.6 |
| 20260831113125 | 68 | 181 | 0.0 | 0.0 | 0.00 | 0.00 | 0.00 | 86 | 1024.7 |
| 20260831112624 | 68 | 260 | 0.0 | 0.0 | 0.00 | 0.00 | 0.00 | 86 | 1024.4 |
| 20260831112119 | 67 | 235 | 0.0 | 0.0 | 0.00 | 0.00 | 0.00 | 87 | 1024.5 |
| 20260831111615 | 67 | 235 | 0.0 | 0.0 | 0.00 | 0.00 | 0.00 | 87 | 1024.3 |
| 20260831111111 | 67 | 255 | 1.0 | 1.0 | 0.00 | 0.00 | 0.00 | 88 | 1024.6 |
| 20260831110606 | 67 | 229 | 0.0 | 0.0 | 0.00 | 0.00 | 0.00 | 88 | 1024.3 |
| 20260831105600 | 67 | 249 | 0.0 | 0.0 | 0.00 | 0.00 | 0.00 | 88 | 1024.0 |
| 20260831105055 | 67 | 180 | 0.0 | 1.0 | 0.00 | 0.00 | 0.00 | 88 | 1024.1 |
| 20260831104551 | 67 | 203 | 0.0 | 0.0 | 0.00 | 0.00 | 0.00 | 87 | 1024.0 |
| 20260831104047 | 67 | 164 | 0.0 | 0.0 | 0.00 | 0.00 | 0.00 | 87 | 1023.9 |
| 20260831103543 | 67 | 188 | 0.0 | 0.0 | 0.00 | 0.00 | 0.00 | 88 | 1024.3 |
| 20260831103039 | 67 | 251 | 0.0 | 0.0 | 0.00 | 0.00 | 0.00 | 88 | 1023.9 |
| 20260831102532 | 67 | 211 | 0.0 | 0.0 | 0.00 | 0.00 | 0.00 | 88 | 1023.9 |
| 20260831102027 | 67 | 226 | 0.0 | 0.0 | 0.00 | 0.00 | 0.00 | 88 | 1023.8 |
| 20260831101522 | 67 | 222 | 0.0 | 0.0 | 0.00 | 0.00 | 0.00 | 88 | 1023.8 |